This demonstration page uses our WeatherBlox Daily Observations layout. Learn more.

Left ArrowRight Arrow

Hourly Observations for September 22, 2021

Temp ( °F °C ) Dew Point ( °F °C ) Humidity (%) Winds ( mph kmh ) Pressure ( in mb ) Visibility ( mi km ) Precip ( " mm )
12:23 am 00:23 Cloudy 71 21.7 70 21.1 96 96 N N/A 29.94 1014 9 14 N/A
12:53 am 00:53 Cloudy 71 21.7 70 21.1 96 96 VRB 3 6 29.94 1014 10 16 N/A
1:27 am 01:27 Cloudy 71 21.7 70 21.1 96 96 N N/A 29.91 1013 10 16 0.02 0.51
1:39 am 01:39 Cloudy 71 21.7 70 21.1 96 96 N N/A 29.90 1013 10 16 0.02 0.51
1:53 am 01:53 Cloudy 71 21.7 70 21.1 96 96 VRB 3 6 29.91 1013 10 16 0.02 0.51
2:46 am 02:46 Cloudy with Rain 64 17.8 63 17.2 96 96 NW 13 20 29.90 1013 2 3 0.16 4.06
2:53 am 02:53 Cloudy with Nearby Thunderstorms 64 17.8 63 17.2 96 96 NNW 18 30 29.90 1013 3 5 0.25 6.35
2:57 am 02:57 Cloudy with Nearby Thunderstorms 63 17.2 62 16.7 97 97 NNW 16 26 29.90 1013 3 4 0.03 0.76
3:06 am 03:06 Cloudy with Nearby Thunderstorms 63 17.2 61 16.1 93 93 NNW 14 22 29.91 1013 5 8 0.05 1.27
3:13 am 03:13 Cloudy with Rain 63 17.2 61 16.1 93 93 N 13 20 29.91 1013 6 10 0.06 1.52
3:44 am 03:44 Cloudy with Light Rain 62 16.7 60 15.6 93 93 NNW 9 15 29.90 1013 9 14 0.08 2.03
3:53 am 03:53 Cloudy with Light Rain 62 16.7 60 15.6 93 93 NNW 9 15 29.89 1012 10 16 0.08 2.03
4:00 am 04:00 Cloudy with Light Rain 62 16.7 60 15.6 93 93 N 9 15 29.89 1012 10 16 0.00 0.00
4:42 am 04:42 Cloudy 61 16.1 60 15.6 97 97 NW 8 13 29.89 1012 10 16 0.09 2.29
4:53 am 04:53 Cloudy 61 16.1 59 15 93 93 NNW 10 17 29.88 1012 10 16 0.09 2.29
5:17 am 05:17 Cloudy 60 15.6 58 14.4 93 93 NNW 8 13 29.89 1012 10 16 0.00 0.00
5:24 am 05:24 Cloudy with Light Rain 60 15.6 58 14.4 93 93 NW 10 17 29.90 1012 10 16 0.00 0.00
5:53 am 05:53 Cloudy with Light Rain 59 15 57 13.9 93 93 NNW 8 13 29.88 1012 10 16 0.00 0.00
6:53 am 06:53 Cloudy with Rain 58 14.4 56 13.3 93 93 WNW 14 22 29.93 1013 4 6 0.08 2.03
7:07 am 07:07 Cloudy with Light Rain 58 14.4 56 13.3 93 93 NW 12 19 29.94 1014 7 11 0.01 0.25
7:24 am 07:24 Cloudy with Light Rain 58 14.4 56 13.3 93 93 NNW 13 20 29.94 1014 8 13 0.02 0.51
7:53 am 07:53 Cloudy 58 14.4 56 13.3 93 93 N 12 19 29.90 1013 10 16 0.02 0.51
8:53 am 08:53 Cloudy with Light Rain 58 14.4 56 13.3 93 93 VRB 7 11 29.90 1012 10 16 0.01 0.25
9:40 am 09:40 Cloudy with Light Rain 59 15 56 13.3 90 90 WNW 7 11 29.94 1014 10 16 0.00 0.00
9:53 am 09:53 Cloudy 59 15 56 13.3 90 90 NW 9 15 29.93 1013 10 16 0.00 0.00
10:11 am 10:11 Cloudy with Light Rain 58 14.4 56 13.3 93 93 NW 9 15 29.94 1014 10 16 0.01 0.25
10:18 am 10:18 Cloudy with Light Rain 58 14.4 56 13.3 93 93 NW 12 19 29.93 1013 10 16 0.01 0.25
10:32 am 10:32 Cloudy with Light Rain 58 14.4 56 13.3 93 93 NNW 8 13 29.93 1013 10 16 0.03 0.76
10:53 am 10:53 Cloudy with Light Rain 58 14.4 56 13.3 93 93 NNW 9 15 29.90 1012 10 16 0.04 1.02
11:13 am 11:13 Cloudy with Light Rain 58 14.4 56 13.3 93 93 NW 9 15 29.92 1013 10 16 0.01 0.25
11:44 am 11:44 Cloudy with Light Rain 58 14.4 56 13.3 93 93 WNW 6 9 29.93 1013 10 16 0.02 0.51
11:53 am 11:53 Cloudy with Light Rain 58 14.4 56 13.3 93 93 NW 8 13 29.91 1013 10 16 0.02 0.51
12:23 pm 12:23 Cloudy with Light Rain 58 14.4 56 13.3 93 93 NNW 6 9 29.91 1013 10 16 0.01 0.25
12:53 pm 12:53 Cloudy with Light Rain 58 14.4 57 13.9 97 97 NW 6 9 29.91 1013 10 16 0.03 0.76
1:31 pm 13:31 Cloudy with Light Rain 58 14.4 57 13.9 97 97 N 6 9 29.89 1012 9 14 0.04 1.02
1:53 pm 13:53 Cloudy with Light Rain 58 14.4 57 13.9 97 97 NNE 15 24 29.82 1010 10 16 0.06 1.52
2:26 pm 14:26 Cloudy with Light Rain 59 15 57 13.9 93 93 NNW 8 13 29.87 1011 10 16 0.00 0.00
2:53 pm 14:53 Cloudy 59 15 56 13.3 90 90 NW 6 9 29.86 1011 10 16 0.00 0.00
3:11 pm 15:11 Cloudy 59 15 56 13.3 90 90 WNW 7 11 29.88 1012 10 16 N/A
3:23 pm 15:23 Cloudy 59 15 56 13.3 90 90 W 6 9 29.88 1012 10 16 N/A
3:53 pm 15:53 Cloudy with Rain 57 13.9 56 13.3 96 96 WNW 10 17 29.88 1012 2 3 0.02 0.51
4:05 pm 16:05 Cloudy with Light Rain 57 13.9 56 13.3 96 96 WNW 9 15 29.89 1012 3 4 0.01 0.25
4:17 pm 16:17 Cloudy with Light Rain 57 13.9 56 13.3 96 96 WNW 7 11 29.89 1012 3 4 0.01 0.25
4:32 pm 16:32 Cloudy with Light Rain 57 13.9 56 13.3 96 96 WNW 8 13 29.89 1012 3 5 0.02 0.51
4:53 pm 16:53 Cloudy with Light Rain 57 13.9 56 13.3 96 96 WNW 10 17 29.90 1012 3 4 0.02 0.51
5:06 pm 17:06 Cloudy with Light Rain 57 13.9 56 13.3 96 96 W 7 11 29.90 1013 2 3 0.01 0.25
5:28 pm 17:28 Cloudy with Light Rain 57 13.9 56 13.3 96 96 WNW 8 13 29.90 1013 3 4 0.04 1.02
5:45 pm 17:45 Cloudy with Light Rain 57 13.9 56 13.3 96 96 WNW 10 17 29.90 1013 3 5 0.05 1.27
5:53 pm 17:53 Cloudy with Light Rain 57 13.9 56 13.3 96 96 WNW 10 17 29.90 1013 4 6 0.06 1.52
5:58 pm 17:58 Cloudy with Light Rain 56 13.3 55 12.8 97 97 WNW 10 17 29.90 1013 4 6 0.00 0.00
6:06 pm 18:06 Cloudy with Rain 57 13.9 55 12.8 93 93 WNW 9 15 29.91 1013 4 6 0.02 0.51
6:24 pm 18:24 Cloudy with Light Rain 57 13.9 55 12.8 93 93 NW 12 19 29.90 1013 5 8 0.03 0.76
6:53 pm 18:53 Cloudy with Rain 56 13.3 55 12.8 97 97 NW 14 22 29.90 1012 8 13 0.05 1.27
7:00 pm 19:00 Cloudy with Rain 56 13.3 54 12.2 93 93 NNW 12 19 29.90 1013 7 11 0.01 0.25
7:53 pm 19:53 Cloudy 56 13.3 53 11.7 90 90 NW 9 15 29.90 1013 10 16 0.01 0.25
8:06 pm 20:06 Cloudy 56 13.3 53 11.7 90 90 NW 9 15 29.91 1013 10 16 N/A
8:42 pm 20:42 Cloudy 56 13.3 53 11.7 90 90 NW 12 19 29.91 1013 10 16 N/A
8:53 pm 20:53 Cloudy with Light Rain 56 13.3 53 11.7 90 90 NW 8 13 29.91 1013 10 16 0.00 0.00
9:53 pm 21:53 Cloudy with Light Rain 54 12.2 52 11.1 93 93 WNW 5 7 29.92 1013 7 11 0.04 1.02
10:00 pm 22:00 Cloudy with Light Rain 54 12.2 53 11.7 97 97 VRB 6 9 29.93 1014 6 10 0.00 0.00
10:11 pm 22:11 Cloudy with Light Rain 54 12.2 53 11.7 97 97 WNW 9 15 29.93 1014 7 11 0.01 0.25
10:53 pm 22:53 Cloudy with Light Rain 54 12.2 52 11.1 93 93 W 7 11 29.92 1013 10 16 0.03 0.76
11:53 pm 23:53 Cloudy with Light Rain 53 11.7 52 11.1 96 96 VRB 3 6 29.92 1013 10 16 0.02 0.51

Powered by AerisWeather